Year,Month,Day,Hour,Minute,Value (Times are PST for temperature in C)
2019,03,20,00,00,6.60
2019,03,20,00,01,6.60
2019,03,20,00,02,6.50
2019,03,20,00,03,6.50
2019,03,20,00,04,6.50
2019,03,20,00,05,6.40
2019,03,20,00,06,6.40
2019,03,20,00,07,6.40
2019,03,20,00,08,6.30
2019,03,20,00,09,6.30
2019,03,20,00,10,6.30
2019,03,20,00,11,6.30
2019,03,20,00,12,6.20
2019,03,20,00,13,6.20
2019,03,20,00,14,6.20
2019,03,20,00,15,6.20
2019,03,20,00,16,6.20
2019,03,20,00,17,6.10
2019,03,20,00,18,6.10
2019,03,20,00,19,6.10
2019,03,20,00,20,6.10
2019,03,20,00,21,6.10
2019,03,20,00,22,6.00
2019,03,20,00,23,6.00
2019,03,20,00,24,6.00
2019,03,20,00,25,6.00
2019,03,20,00,26,6.00
2019,03,20,00,27,5.90
2019,03,20,00,28,5.90
2019,03,20,00,29,6.00
2019,03,20,00,30,6.00
2019,03,20,00,31,6.00
2019,03,20,00,32,6.00
2019,03,20,00,33,6.00
2019,03,20,00,34,6.00
2019,03,20,00,35,6.00
2019,03,20,00,36,5.90
2019,03,20,00,37,5.90
2019,03,20,00,38,5.80
2019,03,20,00,39,5.80
2019,03,20,00,40,5.90
2019,03,20,00,41,5.90
2019,03,20,00,42,5.90
2019,03,20,00,43,5.90
2019,03,20,00,44,5.90
2019,03,20,00,45,5.90
2019,03,20,00,46,5.90
2019,03,20,00,47,5.80
2019,03,20,00,48,5.80
2019,03,20,00,49,5.90
2019,03,20,00,50,6.00
2019,03,20,00,51,6.00
2019,03,20,00,52,6.10
2019,03,20,00,53,6.20
2019,03,20,00,54,6.20
2019,03,20,00,55,6.20
2019,03,20,00,56,6.10
2019,03,20,00,57,6.10
2019,03,20,00,58,6.10
2019,03,20,00,59,6.10
2019,03,20,01,00,6.00
2019,03,20,01,01,6.00
2019,03,20,01,02,6.00
2019,03,20,01,03,5.90
2019,03,20,01,04,5.90
2019,03,20,01,05,5.80
2019,03,20,01,06,5.80
2019,03,20,01,07,5.80
2019,03,20,01,08,5.80
2019,03,20,01,09,5.70
2019,03,20,01,10,5.70
2019,03,20,01,11,5.70
2019,03,20,01,12,5.70
2019,03,20,01,13,5.70
2019,03,20,01,14,5.70
2019,03,20,01,15,5.70
2019,03,20,01,16,5.80
2019,03,20,01,17,5.80
2019,03,20,01,18,5.90
2019,03,20,01,19,5.90
2019,03,20,01,20,5.90
2019,03,20,01,21,5.90
2019,03,20,01,22,5.90
2019,03,20,01,23,5.90
2019,03,20,01,24,5.90
2019,03,20,01,25,5.90
2019,03,20,01,26,5.90
2019,03,20,01,27,5.90
2019,03,20,01,28,5.80
2019,03,20,01,29,5.70
2019,03,20,01,30,5.60
2019,03,20,01,31,5.60
2019,03,20,01,32,5.50
2019,03,20,01,33,5.40
2019,03,20,01,34,5.40
2019,03,20,01,35,5.40
2019,03,20,01,36,5.40
2019,03,20,01,37,5.40
2019,03,20,01,38,5.40
2019,03,20,01,39,5.40
2019,03,20,01,40,5.40
2019,03,20,01,41,5.40
2019,03,20,01,42,5.40
2019,03,20,01,43,5.40
2019,03,20,01,44,5.40
2019,03,20,01,45,5.30
2019,03,20,01,46,5.30
2019,03,20,01,47,5.30
2019,03,20,01,48,5.30
2019,03,20,01,49,5.30
2019,03,20,01,50,5.30
2019,03,20,01,51,5.30
2019,03,20,01,52,5.30
2019,03,20,01,53,5.30
2019,03,20,01,54,5.30
2019,03,20,01,55,5.30
2019,03,20,01,56,5.30
2019,03,20,01,57,5.30
2019,03,20,01,58,5.30
2019,03,20,01,59,5.30
2019,03,20,02,00,5.30
2019,03,20,02,01,5.30
2019,03,20,02,02,5.30
2019,03,20,02,03,5.30
2019,03,20,02,04,5.30
2019,03,20,02,05,5.30
2019,03,20,02,06,5.20
2019,03,20,02,07,5.20
2019,03,20,02,08,5.20
2019,03,20,02,09,5.20
2019,03,20,02,10,5.20
2019,03,20,02,11,5.20
2019,03,20,02,12,5.20
2019,03,20,02,13,5.20
2019,03,20,02,14,5.30
2019,03,20,02,15,5.30
2019,03,20,02,16,5.30
2019,03,20,02,17,5.30
2019,03,20,02,18,5.30
2019,03,20,02,19,5.30
2019,03,20,02,20,5.30
2019,03,20,02,21,5.30
2019,03,20,02,22,5.30
2019,03,20,02,23,5.30
2019,03,20,02,24,5.30
2019,03,20,02,25,5.20
2019,03,20,02,26,5.20
2019,03,20,02,27,5.20
2019,03,20,02,28,5.20
2019,03,20,02,29,5.20
2019,03,20,02,30,5.20
2019,03,20,02,31,5.20
2019,03,20,02,32,5.20
2019,03,20,02,33,5.20
2019,03,20,02,34,5.20
2019,03,20,02,35,5.20
2019,03,20,02,36,5.20
2019,03,20,02,37,5.10
2019,03,20,02,38,5.10
2019,03,20,02,39,5.10
2019,03,20,02,40,5.10
2019,03,20,02,41,5.10
2019,03,20,02,42,5.10
2019,03,20,02,43,5.10
2019,03,20,02,44,5.10
2019,03,20,02,45,5.10
2019,03,20,02,46,5.10
2019,03,20,02,47,5.10
2019,03,20,02,48,5.10
2019,03,20,02,49,5.10
2019,03,20,02,50,5.10
2019,03,20,02,51,5.10
2019,03,20,02,52,5.00
2019,03,20,02,53,5.00
2019,03,20,02,54,5.00
2019,03,20,02,55,5.00
2019,03,20,02,56,5.00
2019,03,20,02,57,4.90
2019,03,20,02,58,4.90
2019,03,20,02,59,4.90
2019,03,20,03,00,4.90
2019,03,20,03,01,4.90
2019,03,20,03,02,4.90
2019,03,20,03,03,4.90
2019,03,20,03,04,4.90
2019,03,20,03,05,4.90
2019,03,20,03,06,4.90
2019,03,20,03,07,4.80
2019,03,20,03,08,4.80
2019,03,20,03,09,4.80
2019,03,20,03,10,4.80
2019,03,20,03,11,4.80
2019,03,20,03,12,4.80
2019,03,20,03,13,4.80
2019,03,20,03,14,4.80
2019,03,20,03,15,4.80
2019,03,20,03,16,4.80
2019,03,20,03,17,4.80
2019,03,20,03,18,4.80
2019,03,20,03,19,4.90
2019,03,20,03,20,4.90
2019,03,20,03,21,4.90
2019,03,20,03,22,4.90
2019,03,20,03,23,4.90
2019,03,20,03,24,4.90
2019,03,20,03,25,4.80
2019,03,20,03,26,4.80
2019,03,20,03,27,4.80
2019,03,20,03,28,4.80
2019,03,20,03,29,4.80
2019,03,20,03,30,4.80
2019,03,20,03,31,4.90
2019,03,20,03,32,4.90
2019,03,20,03,33,5.00
2019,03,20,03,34,5.10
2019,03,20,03,35,5.10
2019,03,20,03,36,5.10
2019,03,20,03,37,5.10
2019,03,20,03,38,5.10
2019,03,20,03,39,5.00
2019,03,20,03,40,5.00
2019,03,20,03,41,4.90
2019,03,20,03,42,4.90
2019,03,20,03,43,4.80
2019,03,20,03,44,4.80
2019,03,20,03,45,4.80
2019,03,20,03,46,4.80
2019,03,20,03,47,4.80
2019,03,20,03,48,4.80
2019,03,20,03,49,4.80
2019,03,20,03,50,4.80
2019,03,20,03,51,4.90
2019,03,20,03,52,5.00
2019,03,20,03,53,5.10
2019,03,20,03,54,5.30
2019,03,20,03,55,5.40
2019,03,20,03,56,5.60
2019,03,20,03,57,5.60
2019,03,20,03,58,5.70
2019,03,20,03,59,5.70
2019,03,20,04,00,5.70
2019,03,20,04,01,5.60
2019,03,20,04,02,5.50
2019,03,20,04,03,5.50
2019,03,20,04,04,5.40
2019,03,20,04,05,5.30
2019,03,20,04,06,5.20
2019,03,20,04,07,5.10
2019,03,20,04,08,5.10
2019,03,20,04,09,5.10
2019,03,20,04,10,5.10
2019,03,20,04,11,5.10
2019,03,20,04,12,5.30
2019,03,20,04,13,5.40
2019,03,20,04,14,5.40
2019,03,20,04,15,5.50
2019,03,20,04,16,5.50
2019,03,20,04,17,5.50
2019,03,20,04,18,5.50
2019,03,20,04,19,5.40
2019,03,20,04,20,5.30
2019,03,20,04,21,5.30
2019,03,20,04,22,5.20
2019,03,20,04,23,5.20
2019,03,20,04,24,5.10
2019,03,20,04,25,5.00
2019,03,20,04,26,5.00
2019,03,20,04,27,4.90
2019,03,20,04,28,4.90
2019,03,20,04,29,4.90
2019,03,20,04,30,4.90
2019,03,20,04,31,5.00
2019,03,20,04,32,5.10
2019,03,20,04,33,5.10
2019,03,20,04,34,5.20
2019,03,20,04,35,5.20
2019,03,20,04,36,5.30
2019,03,20,04,37,5.30
2019,03,20,04,38,5.30
2019,03,20,04,39,5.30
2019,03,20,04,40,5.30
2019,03,20,04,41,5.30
2019,03,20,04,42,5.30
2019,03,20,04,43,5.30
2019,03,20,04,44,5.20
2019,03,20,04,45,5.20
2019,03,20,04,46,5.10
2019,03,20,04,47,5.10
2019,03,20,04,48,5.20
2019,03,20,04,49,5.30
2019,03,20,04,50,5.40
2019,03,20,04,51,5.50
2019,03,20,04,52,5.60
2019,03,20,04,53,5.70
2019,03,20,04,54,5.70
2019,03,20,04,55,5.70
2019,03,20,04,56,5.60
2019,03,20,04,57,5.60
2019,03,20,04,58,5.60
2019,03,20,04,59,5.50
2019,03,20,05,00,5.50
2019,03,20,05,01,5.40
2019,03,20,05,02,5.40
2019,03,20,05,03,5.30
2019,03,20,05,04,5.40
2019,03,20,05,05,5.40
2019,03,20,05,06,5.50
2019,03,20,05,07,5.60
2019,03,20,05,08,5.70
2019,03,20,05,09,5.80
2019,03,20,05,10,5.80
2019,03,20,05,11,5.80
2019,03,20,05,12,5.80
2019,03,20,05,13,5.80
2019,03,20,05,14,5.70
2019,03,20,05,15,5.60
2019,03,20,05,16,5.60
2019,03,20,05,17,5.50
2019,03,20,05,18,5.40
2019,03,20,05,19,5.30
2019,03,20,05,20,5.20
2019,03,20,05,21,5.20
2019,03,20,05,22,5.20
2019,03,20,05,23,5.20
2019,03,20,05,24,5.10
2019,03,20,05,25,5.10
2019,03,20,05,26,5.00
2019,03,20,05,27,4.90
2019,03,20,05,28,4.90
2019,03,20,05,29,4.80
2019,03,20,05,30,4.80
2019,03,20,05,31,4.80
2019,03,20,05,32,4.80
2019,03,20,05,33,4.80
2019,03,20,05,34,4.80
2019,03,20,05,35,4.70
2019,03,20,05,36,4.70
2019,03,20,05,37,4.70
2019,03,20,05,38,4.70
2019,03,20,05,39,4.70
2019,03,20,05,40,4.70
2019,03,20,05,41,4.70
2019,03,20,05,42,4.80
2019,03,20,05,43,4.80
2019,03,20,05,44,4.90
2019,03,20,05,45,4.90
2019,03,20,05,46,4.90
2019,03,20,05,47,4.90
2019,03,20,05,48,4.90
2019,03,20,05,49,4.90
2019,03,20,05,50,4.90
2019,03,20,05,51,4.90
2019,03,20,05,52,4.80
2019,03,20,05,53,4.80
2019,03,20,05,54,4.80
2019,03,20,05,55,4.80
2019,03,20,05,56,4.80
2019,03,20,05,57,4.80
2019,03,20,05,58,4.80
2019,03,20,05,59,4.70
2019,03,20,06,00,4.70
2019,03,20,06,01,4.60
2019,03,20,06,02,4.60
2019,03,20,06,03,4.50
2019,03,20,06,04,4.40
2019,03,20,06,05,4.40
2019,03,20,06,06,4.30
2019,03,20,06,07,4.30
2019,03,20,06,08,4.30
2019,03,20,06,09,4.30
2019,03,20,06,10,4.30
2019,03,20,06,11,4.40
2019,03,20,06,12,4.40
2019,03,20,06,13,4.40
2019,03,20,06,14,4.30
2019,03,20,06,15,4.30
2019,03,20,06,16,4.30
2019,03,20,06,17,4.30
2019,03,20,06,18,4.20
2019,03,20,06,19,4.20
2019,03,20,06,20,4.20
2019,03,20,06,21,4.20
2019,03,20,06,22,4.20
2019,03,20,06,23,4.20
2019,03,20,06,24,4.20
2019,03,20,06,25,4.20
2019,03,20,06,26,4.20
2019,03,20,06,27,4.20
2019,03,20,06,28,4.20
2019,03,20,06,29,4.20
2019,03,20,06,30,4.10
2019,03,20,06,31,4.10
2019,03,20,06,32,4.10
2019,03,20,06,33,4.10
2019,03,20,06,34,4.00
2019,03,20,06,35,4.00
2019,03,20,06,36,3.90
2019,03,20,06,37,3.80
2019,03,20,06,38,3.80
2019,03,20,06,39,3.70
2019,03,20,06,40,3.70
2019,03,20,06,41,3.70
2019,03,20,06,42,3.70
2019,03,20,06,43,3.70
2019,03,20,06,44,3.70
2019,03,20,06,45,3.70
2019,03,20,06,46,3.80
2019,03,20,06,47,3.90
2019,03,20,06,48,4.10
2019,03,20,06,49,4.20
2019,03,20,06,50,4.40
2019,03,20,06,51,4.50
2019,03,20,06,52,4.50
2019,03,20,06,53,4.50
2019,03,20,06,54,4.40
2019,03,20,06,55,4.30
2019,03,20,06,56,4.20
2019,03,20,06,57,4.10
2019,03,20,06,58,4.10
2019,03,20,06,59,4.00
2019,03,20,07,00,3.90
2019,03,20,07,01,3.90
2019,03,20,07,02,3.90
2019,03,20,07,03,3.80
2019,03,20,07,04,3.80
2019,03,20,07,05,3.80
2019,03,20,07,06,3.80
2019,03,20,07,07,3.70
2019,03,20,07,08,3.70
2019,03,20,07,09,3.70
2019,03,20,07,10,3.70
2019,03,20,07,11,3.70
2019,03,20,07,12,3.80
2019,03,20,07,13,3.90
2019,03,20,07,14,4.10
2019,03,20,07,15,4.30
2019,03,20,07,16,4.40
2019,03,20,07,17,4.50
2019,03,20,07,18,4.60
2019,03,20,07,19,4.70
2019,03,20,07,20,4.70
2019,03,20,07,21,4.70
2019,03,20,07,22,4.60
2019,03,20,07,23,4.50
2019,03,20,07,24,4.50
2019,03,20,07,25,4.40
2019,03,20,07,26,4.40
2019,03,20,07,27,4.40
2019,03,20,07,28,4.30
2019,03,20,07,29,4.30
2019,03,20,07,30,4.30
2019,03,20,07,31,4.30
2019,03,20,07,32,4.20
2019,03,20,07,33,4.20
2019,03,20,07,34,4.20
2019,03,20,07,35,4.20
2019,03,20,07,36,4.10
2019,03,20,07,37,4.10
2019,03,20,07,38,4.10
2019,03,20,07,39,4.20
2019,03,20,07,40,4.30
2019,03,20,07,41,4.30
2019,03,20,07,42,4.40
2019,03,20,07,43,4.60
2019,03,20,07,44,4.70
2019,03,20,07,45,4.80
2019,03,20,07,46,4.90
2019,03,20,07,47,5.00
2019,03,20,07,48,5.10
2019,03,20,07,49,5.20
2019,03,20,07,50,5.20
2019,03,20,07,51,5.10
2019,03,20,07,52,5.00
2019,03,20,07,53,4.90
2019,03,20,07,54,4.80
2019,03,20,07,55,4.70
2019,03,20,07,56,4.70
2019,03,20,07,57,4.70
2019,03,20,07,58,4.60
2019,03,20,07,59,4.60
2019,03,20,08,00,4.50
2019,03,20,08,01,4.50
2019,03,20,08,02,4.50
2019,03,20,08,03,4.50
2019,03,20,08,04,4.60
2019,03,20,08,05,4.60
2019,03,20,08,06,4.60
2019,03,20,08,07,4.70
2019,03,20,08,08,4.70
2019,03,20,08,09,4.80
2019,03,20,08,10,5.00
2019,03,20,08,11,5.10
2019,03,20,08,12,5.30
2019,03,20,08,13,5.50
2019,03,20,08,14,5.60
2019,03,20,08,15,5.80
2019,03,20,08,16,5.90
2019,03,20,08,17,6.10
2019,03,20,08,18,6.20
2019,03,20,08,19,6.30
2019,03,20,08,20,6.40
2019,03,20,08,21,6.50
2019,03,20,08,22,6.60
2019,03,20,08,23,6.70
2019,03,20,08,24,6.70
2019,03,20,08,25,6.80
2019,03,20,08,26,6.90
2019,03,20,08,27,6.90
2019,03,20,08,28,6.90
2019,03,20,08,29,6.90
2019,03,20,08,30,7.00
2019,03,20,08,31,7.00
2019,03,20,08,32,7.10
2019,03,20,08,33,7.20
2019,03,20,08,34,7.30
2019,03,20,08,35,7.40
2019,03,20,08,36,7.50
2019,03,20,08,37,7.60
2019,03,20,08,38,7.70
2019,03,20,08,39,7.80
2019,03,20,08,40,7.90
2019,03,20,08,41,8.00
2019,03,20,08,42,8.00
2019,03,20,08,43,8.10
2019,03,20,08,44,8.20
2019,03,20,08,45,8.30
2019,03,20,08,46,8.30
2019,03,20,08,47,8.40
2019,03,20,08,48,8.40
2019,03,20,08,49,8.50
2019,03,20,08,50,8.60
2019,03,20,08,51,8.60
2019,03,20,08,52,8.70
2019,03,20,08,53,8.80
2019,03,20,08,54,8.80
2019,03,20,08,55,8.90
2019,03,20,08,56,8.90
2019,03,20,08,57,9.00
2019,03,20,08,58,9.00
2019,03,20,08,59,9.10
2019,03,20,09,00,9.10
2019,03,20,09,01,9.10
2019,03,20,09,02,9.10
2019,03,20,09,03,9.10
2019,03,20,09,04,9.10
2019,03,20,09,05,9.10
2019,03,20,09,06,9.10
2019,03,20,09,07,9.10
2019,03,20,09,08,9.20
2019,03,20,09,09,9.20
2019,03,20,09,10,9.20
2019,03,20,09,11,9.30
2019,03,20,09,12,9.30
2019,03,20,09,13,9.30
2019,03,20,09,14,9.40
2019,03,20,09,15,9.40
2019,03,20,09,16,9.50
2019,03,20,09,17,9.50
2019,03,20,09,18,9.60
2019,03,20,09,19,9.70
2019,03,20,09,20,9.70
2019,03,20,09,21,9.80
2019,03,20,09,22,9.90
2019,03,20,09,23,10.00
2019,03,20,09,24,10.00
2019,03,20,09,25,10.10
2019,03,20,09,26,10.20
2019,03,20,09,27,10.30
2019,03,20,09,28,10.40
2019,03,20,09,29,10.50
2019,03,20,09,30,10.60
2019,03,20,09,31,10.70
2019,03,20,09,32,10.80
2019,03,20,09,33,10.80
2019,03,20,09,34,10.80
2019,03,20,09,35,10.90
2019,03,20,09,36,10.90
2019,03,20,09,37,11.00
2019,03,20,09,38,11.00
2019,03,20,09,39,11.10
2019,03,20,09,40,11.10
2019,03,20,09,41,11.20
2019,03,20,09,42,11.20
2019,03,20,09,43,11.30
2019,03,20,09,44,11.30
2019,03,20,09,45,11.40
2019,03,20,09,46,11.50
2019,03,20,09,47,11.50
2019,03,20,09,48,11.60
2019,03,20,09,49,11.70
2019,03,20,09,50,11.80
2019,03,20,09,51,11.80
2019,03,20,09,52,11.90
2019,03,20,09,53,12.00
2019,03,20,09,54,12.10
2019,03,20,09,55,12.20
2019,03,20,09,56,12.30
2019,03,20,09,57,12.40
2019,03,20,09,58,12.50
2019,03,20,09,59,12.60
2019,03,20,10,00,12.70
2019,03,20,10,01,12.80
2019,03,20,10,02,12.80
2019,03,20,10,03,12.90
2019,03,20,10,04,12.90
2019,03,20,10,05,13.00
2019,03,20,10,06,13.10
2019,03,20,10,07,13.10
2019,03,20,10,08,13.20
2019,03,20,10,09,13.30
2019,03,20,10,10,13.30
2019,03,20,10,11,13.30
2019,03,20,10,12,13.40
2019,03,20,10,13,13.40
2019,03,20,10,14,13.50
2019,03,20,10,15,13.50
2019,03,20,10,16,13.60
2019,03,20,10,17,13.60
2019,03,20,10,18,13.60
2019,03,20,10,19,13.70
2019,03,20,10,20,13.70
2019,03,20,10,21,13.70
2019,03,20,10,22,13.70
2019,03,20,10,23,13.80
2019,03,20,10,24,13.80
2019,03,20,10,25,13.80
2019,03,20,10,26,13.80
2019,03,20,10,27,13.90
2019,03,20,10,28,13.90
2019,03,20,10,29,14.00
2019,03,20,10,30,14.00
2019,03,20,10,31,14.10
2019,03,20,10,32,14.10
2019,03,20,10,33,14.10
2019,03,20,10,34,14.10
2019,03,20,10,35,14.20
2019,03,20,10,36,14.20
2019,03,20,10,37,14.20
2019,03,20,10,38,14.20
2019,03,20,10,39,14.20
2019,03,20,10,40,14.20
2019,03,20,10,41,14.20
2019,03,20,10,42,14.10
2019,03,20,10,43,14.10
2019,03,20,10,44,14.10
2019,03,20,10,45,14.00
2019,03,20,10,46,14.00
2019,03,20,10,47,14.00
2019,03,20,10,48,14.00
2019,03,20,10,49,14.00
2019,03,20,10,50,14.00
2019,03,20,10,51,14.00
2019,03,20,10,52,14.00
2019,03,20,10,53,14.00
2019,03,20,10,54,13.90
2019,03,20,10,55,13.90
2019,03,20,10,56,13.90
2019,03,20,10,57,14.00
2019,03,20,10,58,14.00
2019,03,20,10,59,14.10
2019,03,20,11,00,14.10
2019,03,20,11,01,14.10
2019,03,20,11,02,14.10
2019,03,20,11,03,14.20
2019,03,20,11,04,14.20
2019,03,20,11,05,14.20
2019,03,20,11,06,14.30
2019,03,20,11,07,14.30
2019,03,20,11,08,14.30
2019,03,20,11,09,14.30
2019,03,20,11,10,14.30
2019,03,20,11,11,14.30
2019,03,20,11,12,14.30
2019,03,20,11,13,14.40
2019,03,20,11,14,14.40
2019,03,20,11,15,14.50
2019,03,20,11,16,14.60
2019,03,20,11,17,14.60
2019,03,20,11,18,14.70
2019,03,20,11,19,14.70
2019,03,20,11,20,14.80
2019,03,20,11,21,14.80
2019,03,20,11,22,14.90
2019,03,20,11,23,14.90
2019,03,20,11,24,15.00
2019,03,20,11,25,15.00
2019,03,20,11,26,15.10
2019,03,20,11,27,15.20
2019,03,20,11,28,15.30
2019,03,20,11,29,15.40
2019,03,20,11,30,15.50
2019,03,20,11,31,15.60
2019,03,20,11,32,15.60
2019,03,20,11,33,15.70
2019,03,20,11,34,15.70
2019,03,20,11,35,15.80
2019,03,20,11,36,15.80
2019,03,20,11,37,15.80
2019,03,20,11,38,15.80
2019,03,20,11,39,15.80
2019,03,20,11,40,15.80
2019,03,20,11,41,15.90
2019,03,20,11,42,15.90
2019,03,20,11,43,16.00
2019,03,20,11,44,16.00
2019,03,20,11,45,16.00
2019,03,20,11,46,16.10
2019,03,20,11,47,16.20
2019,03,20,11,48,16.20
2019,03,20,11,49,16.20
2019,03,20,11,50,16.30
2019,03,20,11,51,16.30
2019,03,20,11,52,16.30
2019,03,20,11,53,16.40
2019,03,20,11,54,16.40
2019,03,20,11,55,16.40
2019,03,20,11,56,16.40
2019,03,20,11,57,16.40
2019,03,20,11,58,16.50
2019,03,20,11,59,16.60
2019,03,20,12,00,16.60
2019,03,20,12,01,16.70
2019,03,20,12,02,16.70
2019,03,20,12,03,16.80
2019,03,20,12,04,16.80
2019,03,20,12,05,16.80
2019,03,20,12,06,16.80
2019,03,20,12,07,16.80
2019,03,20,12,08,16.80
2019,03,20,12,09,16.80
2019,03,20,12,10,16.80
2019,03,20,12,11,16.80
2019,03,20,12,12,16.90
2019,03,20,12,13,16.90
2019,03,20,12,14,16.90
2019,03,20,12,15,16.90
2019,03,20,12,16,16.90
2019,03,20,12,17,17.00
2019,03,20,12,18,17.00
2019,03,20,12,19,17.00
2019,03,20,12,20,17.10
2019,03,20,12,21,17.10
2019,03,20,12,22,17.20
2019,03,20,12,23,17.20
2019,03,20,12,24,17.20
2019,03,20,12,25,17.20
2019,03,20,12,26,17.30
2019,03,20,12,27,17.30
2019,03,20,12,28,17.30
2019,03,20,12,29,17.30
2019,03,20,12,30,17.30
2019,03,20,12,31,17.30
2019,03,20,12,32,17.30
2019,03,20,12,33,17.30
2019,03,20,12,34,17.30
2019,03,20,12,35,17.30
2019,03,20,12,36,17.30
2019,03,20,12,37,17.20
2019,03,20,12,38,17.20
2019,03,20,12,39,17.20
2019,03,20,12,40,17.30
2019,03,20,12,41,17.30
2019,03,20,12,42,17.30
2019,03,20,12,43,17.40
2019,03,20,12,44,17.50
2019,03,20,12,45,17.60
2019,03,20,12,46,17.70
2019,03,20,12,47,17.70
2019,03,20,12,48,17.80
2019,03,20,12,49,17.80
2019,03,20,12,50,17.80
2019,03,20,12,51,17.90
2019,03,20,12,52,17.90
2019,03,20,12,53,18.00
2019,03,20,12,54,18.10
2019,03,20,12,55,18.20
2019,03,20,12,56,18.20
2019,03,20,12,57,18.20
2019,03,20,12,58,18.20
2019,03,20,12,59,18.20
2019,03,20,13,00,18.20
2019,03,20,13,01,18.20
2019,03,20,13,02,18.30
2019,03,20,13,03,18.30
2019,03,20,13,04,18.40
2019,03,20,13,05,18.40
2019,03,20,13,06,18.50
2019,03,20,13,07,18.50
2019,03,20,13,08,18.50
2019,03,20,13,09,18.50
2019,03,20,13,10,18.50
2019,03,20,13,11,18.40
2019,03,20,13,12,18.40
2019,03,20,13,13,18.40
2019,03,20,13,14,18.40
2019,03,20,13,15,18.50
2019,03,20,13,16,18.60
2019,03,20,13,17,18.60
2019,03,20,13,18,18.70
2019,03,20,13,19,18.80
2019,03,20,13,20,18.80
2019,03,20,13,21,18.80
2019,03,20,13,22,18.80
2019,03,20,13,23,18.90
2019,03,20,13,24,18.90
2019,03,20,13,25,18.90
2019,03,20,13,26,19.00
2019,03,20,13,27,18.90
2019,03,20,13,28,18.90
2019,03,20,13,29,18.90
2019,03,20,13,30,18.90
2019,03,20,13,31,18.80
2019,03,20,13,32,18.80
2019,03,20,13,33,18.80
2019,03,20,13,34,18.80
2019,03,20,13,35,18.80
2019,03,20,13,36,18.80
2019,03,20,13,37,18.90
2019,03,20,13,38,19.00
2019,03,20,13,39,19.00
2019,03,20,13,40,19.10
2019,03,20,13,41,19.20
2019,03,20,13,42,19.20
2019,03,20,13,43,19.20
2019,03,20,13,44,19.20
2019,03,20,13,45,19.20
2019,03,20,13,46,19.20
2019,03,20,13,47,19.20
2019,03,20,13,48,19.30
2019,03,20,13,49,19.30
2019,03,20,13,50,19.20
2019,03,20,13,51,19.20
2019,03,20,13,52,19.20
2019,03,20,13,53,19.30
2019,03,20,13,54,19.30
2019,03,20,13,55,19.20
2019,03,20,13,56,19.20
2019,03,20,13,57,19.30
2019,03,20,13,58,19.40
2019,03,20,13,59,19.50
2019,03,20,14,00,19.50
2019,03,20,14,01,19.50
2019,03,20,14,02,19.40
2019,03,20,14,03,19.40
2019,03,20,14,04,19.40
2019,03,20,14,05,19.40
2019,03,20,14,06,19.40
2019,03,20,14,07,19.40
2019,03,20,14,08,19.50
2019,03,20,14,09,19.60
2019,03,20,14,10,19.60
2019,03,20,14,11,19.60
2019,03,20,14,12,19.60
2019,03,20,14,13,19.60
2019,03,20,14,14,19.60
2019,03,20,14,15,19.70
2019,03,20,14,16,19.70
2019,03,20,14,17,19.70
2019,03,20,14,18,19.70
2019,03,20,14,19,19.70
2019,03,20,14,20,19.80
2019,03,20,14,21,19.80
2019,03,20,14,22,19.90
2019,03,20,14,23,20.00
2019,03,20,14,24,20.10
2019,03,20,14,25,20.20
2019,03,20,14,26,20.10
2019,03,20,14,27,20.10
2019,03,20,14,28,20.10
2019,03,20,14,29,20.10
2019,03,20,14,30,20.10
2019,03,20,14,31,20.10
2019,03,20,14,32,20.10
2019,03,20,14,33,20.10
2019,03,20,14,34,20.20
2019,03,20,14,35,20.10
2019,03,20,14,36,20.10
2019,03,20,14,37,20.20
2019,03,20,14,38,20.20
2019,03,20,14,39,20.20
2019,03,20,14,40,20.20
2019,03,20,14,41,20.20
2019,03,20,14,42,20.30
2019,03,20,14,43,20.30
2019,03,20,14,44,20.30
2019,03,20,14,45,20.30
2019,03,20,14,46,20.30
2019,03,20,14,47,20.30
2019,03,20,14,48,20.30
2019,03,20,14,49,20.30
2019,03,20,14,50,20.30
2019,03,20,14,51,20.40
2019,03,20,14,52,20.50
2019,03,20,14,53,20.60
2019,03,20,14,54,20.70
2019,03,20,14,55,20.70
2019,03,20,14,56,20.60
2019,03,20,14,57,20.60
2019,03,20,14,58,20.60
2019,03,20,14,59,20.60
2019,03,20,15,00,20.60
2019,03,20,15,01,20.60
2019,03,20,15,02,20.50
2019,03,20,15,03,20.40
2019,03,20,15,04,20.40
2019,03,20,15,05,20.40
2019,03,20,15,06,20.40
2019,03,20,15,07,20.30
2019,03,20,15,08,20.20
2019,03,20,15,09,20.10
2019,03,20,15,10,20.10
2019,03,20,15,11,20.20
2019,03,20,15,12,20.20
2019,03,20,15,13,20.20
2019,03,20,15,14,20.20
2019,03,20,15,15,20.20
2019,03,20,15,16,20.30
2019,03,20,15,17,20.30
2019,03,20,15,18,20.40
2019,03,20,15,19,20.50
2019,03,20,15,20,20.50
2019,03,20,15,21,20.50
2019,03,20,15,22,20.50
2019,03,20,15,23,20.50
2019,03,20,15,24,20.60
2019,03,20,15,25,20.70
2019,03,20,15,26,20.80
2019,03,20,15,27,20.90
2019,03,20,15,28,21.00
2019,03,20,15,29,21.10
2019,03,20,15,30,21.00
2019,03,20,15,31,21.00
2019,03,20,15,32,21.00
2019,03,20,15,33,21.00
2019,03,20,15,34,21.00
2019,03,20,15,35,21.00
2019,03,20,15,36,20.90
2019,03,20,15,37,20.80
2019,03,20,15,38,20.80
2019,03,20,15,39,20.70
2019,03,20,15,40,20.70
2019,03,20,15,41,20.60
2019,03,20,15,42,20.60
2019,03,20,15,43,20.60
2019,03,20,15,44,20.50
2019,03,20,15,45,20.40
2019,03,20,15,46,20.40
2019,03,20,15,47,20.40
2019,03,20,15,48,20.50
2019,03,20,15,49,20.50
2019,03,20,15,50,20.50
2019,03,20,15,51,20.50
2019,03,20,15,52,20.50
2019,03,20,15,53,20.60
2019,03,20,15,54,20.70
2019,03,20,15,55,20.70
2019,03,20,15,56,20.70
2019,03,20,15,57,20.70
2019,03,20,15,58,20.80
2019,03,20,15,59,20.80
2019,03,20,16,00,20.80
2019,03,20,16,01,20.90
2019,03,20,16,02,20.90
2019,03,20,16,03,20.90
2019,03,20,16,04,20.90
2019,03,20,16,05,20.90
2019,03,20,16,06,20.90
2019,03,20,16,07,20.90
2019,03,20,16,08,20.90
2019,03,20,16,09,20.80
2019,03,20,16,10,20.80
2019,03,20,16,11,20.80
2019,03,20,16,12,20.80
2019,03,20,16,13,20.70
2019,03,20,16,14,20.70
2019,03,20,16,15,20.60
2019,03,20,16,16,20.60
2019,03,20,16,17,20.70
2019,03,20,16,18,20.70
2019,03,20,16,19,20.80
2019,03,20,16,20,20.90
2019,03,20,16,21,20.90
2019,03,20,16,22,20.90
2019,03,20,16,23,20.80
2019,03,20,16,24,20.80
2019,03,20,16,25,20.80
2019,03,20,16,26,20.80
2019,03,20,16,27,20.90
2019,03,20,16,28,20.90
2019,03,20,16,29,20.90
2019,03,20,16,30,21.00
2019,03,20,16,31,21.10
2019,03,20,16,32,21.20
2019,03,20,16,33,21.20
2019,03,20,16,34,21.30
2019,03,20,16,35,21.30
2019,03,20,16,36,21.40
2019,03,20,16,37,21.40
2019,03,20,16,38,21.40
2019,03,20,16,39,21.30
2019,03,20,16,40,21.30
2019,03,20,16,41,21.40
2019,03,20,16,42,21.40
2019,03,20,16,43,21.50
2019,03,20,16,44,21.50
2019,03,20,16,45,21.60
2019,03,20,16,46,21.70
2019,03,20,16,47,21.70
2019,03,20,16,48,21.70
2019,03,20,16,49,21.80
2019,03,20,16,50,21.80
2019,03,20,16,51,21.70
2019,03,20,16,52,21.70
2019,03,20,16,53,21.70
2019,03,20,16,54,21.70
2019,03,20,16,55,21.60
2019,03,20,16,56,21.60
2019,03,20,16,57,21.60
2019,03,20,16,58,21.60
2019,03,20,16,59,21.60
2019,03,20,17,00,21.60
2019,03,20,17,01,21.70
2019,03,20,17,02,21.70
2019,03,20,17,03,21.70
2019,03,20,17,04,21.70
2019,03,20,17,05,21.70
2019,03,20,17,06,21.60
2019,03,20,17,07,21.60
2019,03,20,17,08,21.50
2019,03,20,17,09,21.50
2019,03,20,17,10,21.50
2019,03,20,17,11,21.50
2019,03,20,17,12,21.40
2019,03,20,17,13,21.30
2019,03,20,17,14,21.30
2019,03,20,17,15,21.20
2019,03,20,17,16,21.20
2019,03,20,17,17,21.20
2019,03,20,17,18,21.20
2019,03,20,17,19,21.20
2019,03,20,17,20,21.10
2019,03,20,17,21,21.10
2019,03,20,17,22,21.00
2019,03,20,17,23,20.90
2019,03,20,17,24,20.90
2019,03,20,17,25,21.00
2019,03,20,17,26,21.10
2019,03,20,17,27,21.10
2019,03,20,17,28,21.20
2019,03,20,17,29,21.30
2019,03,20,17,30,21.30
2019,03,20,17,31,21.30
2019,03,20,17,32,21.30
2019,03,20,17,33,21.30
2019,03,20,17,34,21.30
2019,03,20,17,35,21.30
2019,03,20,17,36,21.30
2019,03,20,17,37,21.40
2019,03,20,17,38,21.40
2019,03,20,17,39,21.50
2019,03,20,17,40,21.50
2019,03,20,17,41,21.50
2019,03,20,17,42,21.40
2019,03,20,17,43,21.40